CES5226 ZLXY-ZSAM

Flight info

Callsign CES5226
Flight time 2h 7m
Altitude 35100
Route PUMUR7U PUMUR W286 SUDGO W4 UPSIK W282 NUGSA DCT ML W45 IGEDU B213 WHA R343 SAGUD W50 XSH W105 NCH W19 PLT DCT TEBON TEBON6W
Aircraft A320/M-SDE3FGHIRWY/LB1

Departure

Time 2026-04-22 13:11
Airport Xi'an Xianyang International Airport (ZLXY)

Arrival

Time 2026-04-22 15:18
Airport Xiamen Gaoqi International Airport (ZSAM)
Time Latitude Longitude Altitude Speed Heading
2026-04-22 12:45 34.43579 108.76196 1521 ft 0 kts 229°
2026-04-22 13:00 34.43579 108.76197 1521 ft 1 kts 229°
2026-04-22 13:00 34.43589 108.76211 1521 ft 2 kts 230°
2026-04-22 13:00 34.43600 108.76226 1521 ft 2 kts 222°
2026-04-22 13:00 34.43612 108.76240 1517 ft 2 kts 247°
2026-04-22 13:01 34.43618 108.76259 1521 ft 2 kts 263°
2026-04-22 13:01 34.43619 108.76278 1517 ft 2 kts 271°
2026-04-22 13:01 34.43616 108.76287 1519 ft 0 kts 311°
2026-04-22 13:04 34.43619 108.76285 1521 ft 1 kts 326°
2026-04-22 13:04 34.43623 108.76293 1521 ft 1 kts 58°
2026-04-22 13:05 34.43603 108.76310 1520 ft 8 kts 148°
2026-04-22 13:05 34.43536 108.76371 1518 ft 16 kts 138°
2026-04-22 13:05 34.43450 108.76462 1521 ft 16 kts 139°
2026-04-22 13:05 34.43383 108.76539 1521 ft 8 kts 114°
2026-04-22 13:06 34.43403 108.76595 1519 ft 8 kts 49°
2026-04-22 13:06 34.43455 108.76666 1521 ft 14 kts 49°
2026-04-22 13:06 34.43535 108.76776 1521 ft 21 kts 48°
2026-04-22 13:06 34.43641 108.76923 1521 ft 24 kts 48°
2026-04-22 13:07 34.43753 108.77077 1521 ft 24 kts 50°
2026-04-22 13:07 34.43866 108.77232 1519 ft 25 kts 49°
2026-04-22 13:07 34.43980 108.77392 1522 ft 26 kts 49°
2026-04-22 13:07 34.44098 108.77554 1520 ft 26 kts 49°
2026-04-22 13:08 34.44220 108.77724 1521 ft 27 kts 50°
2026-04-22 13:08 34.44341 108.77888 1521 ft 25 kts 48°
2026-04-22 13:08 34.44437 108.78020 1521 ft 15 kts 50°
2026-04-22 13:08 34.44443 108.78117 1519 ft 8 kts 138°
2026-04-22 13:09 34.44406 108.78157 1519 ft 7 kts 140°
2026-04-22 13:09 34.44363 108.78197 1520 ft 10 kts 145°
2026-04-22 13:09 34.44311 108.78181 1520 ft 7 kts 227°
2026-04-22 13:09 34.44307 108.78174 1520 ft 0 kts 228°
2026-04-22 13:10 34.44298 108.78163 1509 ft 16 kts 228°
2026-04-22 13:10 34.44048 108.77817 1522 ft 89 kts 229°
2026-04-22 13:10 34.43508 108.77067 1521 ft 144 kts 229°
2026-04-22 13:10 34.42758 108.76029 1697 ft 172 kts 229°
2026-04-22 13:11 34.41990 108.74965 2483 ft 167 kts 229°
2026-04-22 13:11 34.41231 108.73910 3201 ft 165 kts 230°
2026-04-22 13:11 34.40489 108.72877 3824 ft 163 kts 230°
2026-04-22 13:11 34.39736 108.71827 4286 ft 168 kts 230°
2026-04-22 13:12 34.38960 108.70741 4738 ft 174 kts 230°
2026-04-22 13:12 34.38133 108.69580 5015 ft 191 kts 230°
2026-04-22 13:12 34.37222 108.68296 5264 ft 208 kts 230°
2026-04-22 13:12 34.36284 108.66976 5773 ft 212 kts 230°
2026-04-22 13:13 34.35304 108.65625 6271 ft 216 kts 229°
2026-04-22 13:13 34.34290 108.64257 6736 ft 221 kts 227°
2026-04-22 13:13 34.33032 108.63140 7075 ft 232 kts 204°
2026-04-22 13:13 34.31508 108.62292 7320 ft 252 kts 205°
2026-04-22 13:14 34.29878 108.61360 7802 ft 264 kts 205°
2026-04-22 13:14 34.28217 108.60389 8524 ft 267 kts 206°
2026-04-22 13:14 34.27102 108.59733 9042 ft 269 kts 206°
2026-04-22 13:14 34.25368 108.58744 9683 ft 279 kts 200°
2026-04-22 13:15 34.23433 108.58423 10074 ft 293 kts 173°
2026-04-22 13:15 34.21451 108.59211 10291 ft 313 kts 145°
2026-04-22 13:15 34.19770 108.61019 10464 ft 335 kts 134°
2026-04-22 13:15 34.18083 108.63099 10592 ft 358 kts 133°
2026-04-22 13:16 34.16312 108.65319 10832 ft 375 kts 133°
2026-04-22 13:16 34.14487 108.67611 11362 ft 381 kts 133°
2026-04-22 13:16 34.12630 108.69930 11933 ft 387 kts 133°
2026-04-22 13:16 34.10737 108.72279 12519 ft 393 kts 133°
2026-04-22 13:17 34.08816 108.74647 13085 ft 398 kts 133°
2026-04-22 13:17 34.06862 108.77048 13647 ft 403 kts 134°
2026-04-22 13:17 34.04883 108.79476 14154 ft 409 kts 134°
2026-04-22 13:17 34.02879 108.81936 14659 ft 413 kts 134°
2026-04-22 13:18 34.00857 108.84418 15158 ft 417 kts 134°
2026-04-22 13:18 33.98812 108.86925 15657 ft 422 kts 134°
2026-04-22 13:18 33.96743 108.89458 16140 ft 426 kts 134°
2026-04-22 13:18 33.94656 108.92013 16625 ft 430 kts 135°
2026-04-22 13:19 33.92551 108.94588 17082 ft 434 kts 135°
2026-04-22 13:19 33.90421 108.97189 17544 ft 438 kts 135°
2026-04-22 13:19 33.88270 108.99815 18004 ft 443 kts 135°
2026-04-22 13:19 33.86096 109.02467 18441 ft 447 kts 135°
2026-04-22 13:20 33.83911 109.05135 18842 ft 450 kts 135°
2026-04-22 13:20 33.81710 109.07820 19269 ft 452 kts 135°
2026-04-22 13:20 33.79526 109.10480 19711 ft 454 kts 136°
2026-04-22 13:20 33.77297 109.13189 20140 ft 456 kts 136°
2026-04-22 13:21 33.75065 109.15905 20566 ft 458 kts 136°
2026-04-22 13:21 33.72818 109.18640 20980 ft 461 kts 136°
2026-04-22 13:21 33.70558 109.21385 21363 ft 463 kts 137°
2026-04-22 13:21 33.68288 109.24137 21765 ft 466 kts 137°
2026-04-22 13:22 33.66003 109.26906 22137 ft 468 kts 137°
2026-04-22 13:22 33.63708 109.29689 22503 ft 470 kts 137°
2026-04-22 13:22 33.61400 109.32488 22841 ft 473 kts 137°
2026-04-22 13:22 33.59077 109.35302 23193 ft 476 kts 138°
2026-04-22 13:23 33.56742 109.38127 23549 ft 478 kts 138°
2026-04-22 13:23 33.54397 109.40956 23851 ft 480 kts 139°
2026-04-22 13:23 33.52030 109.43805 24132 ft 484 kts 139°
2026-04-22 13:23 33.49649 109.46668 24422 ft 486 kts 139°
2026-04-22 13:24 33.47307 109.49610 24681 ft 492 kts 134°
2026-04-22 13:24 33.45317 109.52973 24908 ft 500 kts 123°
2026-04-22 13:24 33.43811 109.56758 25154 ft 507 kts 112°
2026-04-22 13:24 33.42855 109.60841 25403 ft 512 kts 102°
2026-04-22 13:25 33.42483 109.65092 25636 ft 517 kts 91°
2026-04-22 13:25 33.42704 109.69390 25854 ft 520 kts 83°
2026-04-22 13:25 33.43126 109.73638 26075 ft 522 kts 83°
2026-04-22 13:25 33.43554 109.77971 26287 ft 525 kts 83°
2026-04-22 13:26 33.43976 109.82326 26517 ft 528 kts 83°
2026-04-22 13:26 33.44394 109.86696 26766 ft 530 kts 83°
2026-04-22 13:26 33.44813 109.91085 27106 ft 530 kts 83°
2026-04-22 13:26 33.45232 109.95473 27414 ft 531 kts 84°
2026-04-22 13:27 33.45651 109.99875 27730 ft 531 kts 84°
2026-04-22 13:27 33.46069 110.04264 28047 ft 531 kts 84°
2026-04-22 13:27 33.46488 110.08660 28353 ft 532 kts 84°
2026-04-22 13:27 33.46904 110.13064 28660 ft 532 kts 84°
2026-04-22 13:28 33.47317 110.17478 28988 ft 533 kts 84°
2026-04-22 13:28 33.47727 110.21879 29289 ft 533 kts 84°
2026-04-22 13:28 33.48138 110.26298 29580 ft 534 kts 84°
2026-04-22 13:28 33.48549 110.30722 29881 ft 534 kts 84°
2026-04-22 13:29 33.48956 110.35142 30212 ft 534 kts 84°
2026-04-22 13:29 33.49366 110.39564 30506 ft 534 kts 84°
2026-04-22 13:29 33.49773 110.43974 30799 ft 533 kts 84°
2026-04-22 13:29 33.50177 110.48383 31132 ft 532 kts 84°
2026-04-22 13:30 33.50579 110.52787 31467 ft 531 kts 84°
2026-04-22 13:30 33.50980 110.57180 31762 ft 530 kts 84°
2026-04-22 13:30 33.51378 110.61569 32067 ft 530 kts 84°
2026-04-22 13:30 33.51772 110.65952 32348 ft 529 kts 84°
2026-04-22 13:31 33.52162 110.70336 32668 ft 528 kts 84°
2026-04-22 13:31 33.52550 110.74713 32985 ft 527 kts 84°
2026-04-22 13:31 33.52914 110.79022 33264 ft 527 kts 87°
2026-04-22 13:31 33.52927 110.83400 33544 ft 525 kts 96°
2026-04-22 13:32 33.52458 110.87720 33844 ft 521 kts 105°
2026-04-22 13:32 33.51541 110.91896 34122 ft 516 kts 113°
2026-04-22 13:32 33.50223 110.95867 34344 ft 513 kts 118°
2026-04-22 13:32 33.48807 110.99799 34535 ft 514 kts 118°
2026-04-22 13:33 33.47387 111.03732 34714 ft 515 kts 118°
2026-04-22 13:33 33.45964 111.07671 34906 ft 516 kts 118°
2026-04-22 13:33 33.44539 111.11613 35073 ft 517 kts 118°
2026-04-22 13:34 33.41659 111.19565 35163 ft 523 kts 118°
2026-04-22 13:34 33.38754 111.27566 35160 ft 525 kts 118°
2026-04-22 13:35 33.35848 111.35569 35154 ft 525 kts 118°
2026-04-22 13:35 33.32932 111.43568 35154 ft 525 kts 118°
2026-04-22 13:36 33.30006 111.51572 35154 ft 525 kts 118°
2026-04-22 13:36 33.27084 111.59570 35144 ft 525 kts 118°
2026-04-22 13:37 33.24148 111.67556 35135 ft 525 kts 118°
2026-04-22 13:37 33.21229 111.75483 35131 ft 525 kts 118°
2026-04-22 13:38 33.18288 111.83476 35126 ft 525 kts 118°
2026-04-22 13:38 33.13863 111.95448 35123 ft 526 kts 118°
2026-04-22 13:39 33.10897 112.03420 35125 ft 526 kts 118°
2026-04-22 13:39 33.07929 112.11387 35122 ft 526 kts 118°
2026-04-22 13:40 33.04968 112.19360 35118 ft 526 kts 118°
2026-04-22 13:40 33.01609 112.27013 35118 ft 512 kts 135°
2026-04-22 13:41 32.99190 112.30028 35122 ft 499 kts 146°
2026-04-22 13:41 32.96586 112.32772 35128 ft 499 kts 147°
2026-04-22 13:41 32.91393 112.38189 35120 ft 500 kts 147°
2026-04-22 13:42 32.86162 112.43639 35119 ft 500 kts 146°
2026-04-22 13:42 32.80931 112.49106 35117 ft 501 kts 146°
2026-04-22 13:43 32.75691 112.54586 35113 ft 501 kts 146°
2026-04-22 13:43 32.70442 112.60044 35117 ft 502 kts 146°
2026-04-22 13:44 32.65185 112.65499 35119 ft 503 kts 146°
2026-04-22 13:44 32.59916 112.70978 35119 ft 503 kts 146°
2026-04-22 13:45 32.54679 112.76403 35118 ft 503 kts 146°
2026-04-22 13:45 32.49399 112.81852 35117 ft 504 kts 146°
2026-04-22 13:46 32.44105 112.87311 35114 ft 505 kts 146°
2026-04-22 13:46 32.38804 112.92782 35112 ft 506 kts 146°
2026-04-22 13:47 32.33495 112.98253 35116 ft 507 kts 146°
2026-04-22 13:47 32.28172 113.03725 35116 ft 507 kts 146°
2026-04-22 13:48 32.22839 113.09191 35118 ft 508 kts 146°
2026-04-22 13:48 32.17497 113.14662 35120 ft 508 kts 146°
2026-04-22 13:49 32.12148 113.20121 35120 ft 508 kts 146°
2026-04-22 13:49 32.06830 113.25540 35118 ft 509 kts 146°
2026-04-22 13:50 32.01474 113.31005 35121 ft 510 kts 146°
2026-04-22 13:50 31.96110 113.36468 35124 ft 510 kts 146°
2026-04-22 13:51 31.90740 113.41918 35121 ft 510 kts 146°
2026-04-22 13:51 31.85365 113.47359 35131 ft 509 kts 146°
2026-04-22 13:52 31.80001 113.52792 35130 ft 509 kts 146°
2026-04-22 13:52 31.74634 113.58221 35128 ft 509 kts 146°
2026-04-22 13:53 31.69274 113.63626 35129 ft 508 kts 146°
2026-04-22 13:53 31.63945 113.68991 35124 ft 507 kts 146°
2026-04-22 13:54 31.58593 113.74375 35118 ft 507 kts 146°
2026-04-22 13:54 31.53244 113.79755 35117 ft 506 kts 146°
2026-04-22 13:55 31.47894 113.85125 35110 ft 506 kts 146°
2026-04-22 13:55 31.42547 113.90476 35106 ft 506 kts 146°
2026-04-22 13:56 31.37200 113.95826 35102 ft 505 kts 146°
2026-04-22 13:56 31.31856 114.01160 35098 ft 505 kts 146°
2026-04-22 13:57 31.26510 114.06481 35097 ft 504 kts 146°
2026-04-22 13:57 31.21173 114.11793 35107 ft 504 kts 146°
2026-04-22 13:58 31.15833 114.17108 35099 ft 504 kts 146°
2026-04-22 13:58 31.10497 114.22403 35101 ft 503 kts 146°
2026-04-22 13:59 31.05156 114.27682 35110 ft 503 kts 146°
2026-04-22 13:59 30.99834 114.32950 35112 ft 502 kts 146°
2026-04-22 14:00 30.94510 114.38212 35116 ft 501 kts 146°
2026-04-22 14:00 30.89198 114.43462 35111 ft 502 kts 144°
2026-04-22 14:01 30.84642 114.49656 35103 ft 515 kts 127°
2026-04-22 14:01 30.80884 114.56769 35093 ft 516 kts 126°
2026-04-22 14:02 30.77120 114.63875 35085 ft 516 kts 127°
2026-04-22 14:02 30.73343 114.70961 35083 ft 516 kts 127°
2026-04-22 14:03 30.69560 114.78048 35080 ft 516 kts 127°
2026-04-22 14:03 30.65781 114.85145 35081 ft 516 kts 127°
2026-04-22 14:04 30.61999 114.92238 35092 ft 517 kts 127°
2026-04-22 14:04 30.58205 114.99324 35095 ft 517 kts 127°
2026-04-22 14:05 30.54402 115.06405 35105 ft 517 kts 127°
2026-04-22 14:06 30.48695 115.17015 35107 ft 517 kts 127°
2026-04-22 14:06 30.44451 115.23557 35100 ft 505 kts 142°
2026-04-22 14:07 30.38984 115.28375 35094 ft 486 kts 159°
2026-04-22 14:07 30.32859 115.31387 35089 ft 476 kts 167°
2026-04-22 14:08 30.26667 115.34123 35080 ft 477 kts 167°
2026-04-22 14:08 30.20480 115.36885 35074 ft 477 kts 167°
2026-04-22 14:09 30.14291 115.39639 35076 ft 477 kts 167°
2026-04-22 14:09 30.08097 115.42378 35078 ft 477 kts 167°
2026-04-22 14:10 30.01902 115.45106 35086 ft 477 kts 167°
2026-04-22 14:10 29.95743 115.47812 35083 ft 477 kts 167°
2026-04-22 14:11 29.89552 115.50538 35084 ft 477 kts 167°
2026-04-22 14:11 29.83349 115.53266 35087 ft 477 kts 167°
2026-04-22 14:12 29.77149 115.55991 35087 ft 477 kts 167°
2026-04-22 14:12 29.71958 115.58275 35087 ft 477 kts 167°
2026-04-22 14:13 29.65789 115.60973 35087 ft 477 kts 167°
2026-04-22 14:13 29.59587 115.63677 35095 ft 477 kts 167°
2026-04-22 14:14 29.53383 115.66393 35093 ft 477 kts 167°
2026-04-22 14:14 29.47181 115.69113 35092 ft 477 kts 167°
2026-04-22 14:15 29.40972 115.71828 35100 ft 477 kts 167°
2026-04-22 14:15 29.34760 115.74538 35104 ft 478 kts 167°
2026-04-22 14:16 29.28511 115.77053 35105 ft 474 kts 171°
2026-04-22 14:16 29.22210 115.79184 35103 ft 472 kts 172°
2026-04-22 14:17 29.15905 115.81257 35098 ft 472 kts 172°
2026-04-22 14:17 29.09657 115.83409 35097 ft 472 kts 171°
2026-04-22 14:18 29.03396 115.85715 35102 ft 473 kts 170°
2026-04-22 14:18 28.97146 115.88103 35108 ft 473 kts 171°
2026-04-22 14:18 28.93992 115.88958 35108 ft 460 kts 181°
2026-04-22 14:19 28.90844 115.89158 35104 ft 447 kts 191°
2026-04-22 14:19 28.87803 115.88738 35109 ft 435 kts 201°
2026-04-22 14:19 28.84934 115.87773 35103 ft 425 kts 209°
2026-04-22 14:20 28.77524 115.82703 35109 ft 412 kts 221°
2026-04-22 14:20 28.72778 115.79044 35110 ft 411 kts 221°
2026-04-22 14:21 28.65680 115.73583 35116 ft 410 kts 221°
2026-04-22 14:22 28.58229 115.68696 35112 ft 416 kts 213°
2026-04-22 14:23 28.50386 115.64470 35115 ft 415 kts 214°
2026-04-22 14:23 28.45171 115.61656 35113 ft 415 kts 214°
2026-04-22 14:24 28.39700 115.59464 35113 ft 434 kts 198°
2026-04-22 14:24 28.36637 115.59266 35109 ft 450 kts 187°
2026-04-22 14:24 28.33493 115.59825 35108 ft 467 kts 174°
2026-04-22 14:25 28.27251 115.62103 35090 ft 472 kts 172°
2026-04-22 14:25 28.20999 115.64392 35088 ft 472 kts 173°
2026-04-22 14:26 28.14739 115.66662 35083 ft 472 kts 173°
2026-04-22 14:26 28.08474 115.68937 35089 ft 473 kts 173°
2026-04-22 14:27 28.02196 115.71199 35087 ft 471 kts 175°
2026-04-22 14:27 27.99031 115.71930 35088 ft 458 kts 184°
2026-04-22 14:27 27.95900 115.72094 35087 ft 445 kts 193°
2026-04-22 14:27 27.92867 115.71734 35086 ft 433 kts 201°
2026-04-22 14:28 27.89992 115.70904 35084 ft 422 kts 208°
2026-04-22 14:28 27.84469 115.68679 35085 ft 421 kts 209°
2026-04-22 14:29 27.78931 115.66463 35088 ft 423 kts 209°
2026-04-22 14:29 27.73419 115.64256 35102 ft 423 kts 209°
2026-04-22 14:30 27.67834 115.62002 35096 ft 424 kts 209°
2026-04-22 14:30 27.62322 115.59774 35094 ft 424 kts 209°
2026-04-22 14:31 27.56779 115.57529 35091 ft 424 kts 209°
2026-04-22 14:31 27.51220 115.55287 35094 ft 424 kts 209°
2026-04-22 14:32 27.45662 115.53054 35094 ft 425 kts 209°
2026-04-22 14:32 27.40089 115.50818 35097 ft 425 kts 209°
2026-04-22 14:33 27.34519 115.48579 35095 ft 425 kts 209°
2026-04-22 14:33 27.28920 115.46373 35098 ft 431 kts 204°
2026-04-22 14:33 27.25890 115.45933 35096 ft 453 kts 188°
2026-04-22 14:34 27.22713 115.46555 35096 ft 477 kts 169°
2026-04-22 14:34 27.19685 115.48259 35092 ft 493 kts 158°
2026-04-22 14:34 27.16739 115.50243 35087 ft 495 kts 158°
2026-04-22 14:35 27.10856 115.54301 35083 ft 497 kts 157°
2026-04-22 14:35 27.04997 115.58334 35085 ft 498 kts 157°
2026-04-22 14:36 26.99072 115.62359 35081 ft 498 kts 157°
2026-04-22 14:36 26.93138 115.66366 35085 ft 498 kts 157°
2026-04-22 14:37 26.87192 115.70371 35093 ft 498 kts 157°
2026-04-22 14:37 26.81256 115.74374 35094 ft 499 kts 157°
2026-04-22 14:38 26.75411 115.78614 35096 ft 510 kts 145°
2026-04-22 14:38 26.70523 115.84485 35089 ft 518 kts 138°
2026-04-22 14:39 26.65749 115.90523 35086 ft 518 kts 137°
2026-04-22 14:39 26.60984 115.96555 35080 ft 517 kts 137°
2026-04-22 14:40 26.56998 116.01565 34418 ft 520 kts 137°
2026-04-22 14:40 26.53785 116.05591 33603 ft 518 kts 138°
2026-04-22 14:40 26.51413 116.08557 32971 ft 519 kts 137°
2026-04-22 14:40 26.49009 116.11556 32350 ft 519 kts 137°
2026-04-22 14:41 26.46595 116.14564 31745 ft 520 kts 137°
2026-04-22 14:41 26.44188 116.17569 31153 ft 521 kts 137°
2026-04-22 14:41 26.41773 116.20589 30560 ft 522 kts 137°
2026-04-22 14:41 26.39354 116.23614 29976 ft 523 kts 137°
2026-04-22 14:42 26.36933 116.26643 29296 ft 523 kts 137°
2026-04-22 14:42 26.34509 116.29673 28653 ft 524 kts 137°
2026-04-22 14:42 26.32078 116.32705 28015 ft 525 kts 137°
2026-04-22 14:42 26.29644 116.35735 27385 ft 525 kts 137°
2026-04-22 14:43 26.27207 116.38765 26774 ft 525 kts 137°
2026-04-22 14:43 26.24766 116.41797 26175 ft 526 kts 137°
2026-04-22 14:43 26.22321 116.44831 25587 ft 526 kts 137°
2026-04-22 14:43 26.19897 116.47841 25014 ft 518 kts 137°
2026-04-22 14:44 26.17521 116.50798 24438 ft 504 kts 137°
2026-04-22 14:44 26.15234 116.53646 23888 ft 484 kts 137°
2026-04-22 14:44 26.13011 116.56405 23313 ft 476 kts 137°
2026-04-22 14:44 26.10814 116.59115 22663 ft 464 kts 137°
2026-04-22 14:45 26.08698 116.61728 22078 ft 447 kts 137°
2026-04-22 14:45 26.06653 116.64258 21496 ft 433 kts 137°
2026-04-22 14:45 26.04653 116.66727 20961 ft 428 kts 137°
2026-04-22 14:45 26.02670 116.69171 20690 ft 423 kts 137°
2026-04-22 14:46 26.00702 116.71594 20630 ft 421 kts 137°
2026-04-22 14:46 25.98760 116.73979 20649 ft 422 kts 137°
2026-04-22 14:46 25.96791 116.76397 20645 ft 422 kts 137°
2026-04-22 14:46 25.94846 116.78798 20639 ft 410 kts 137°
2026-04-22 14:47 25.92982 116.81114 20641 ft 394 kts 137°
2026-04-22 14:47 25.91183 116.83345 20643 ft 384 kts 138°
2026-04-22 14:47 25.89394 116.85544 20577 ft 384 kts 138°
2026-04-22 14:47 25.87605 116.87735 20181 ft 382 kts 138°
2026-04-22 14:48 25.85829 116.89914 19830 ft 379 kts 138°
2026-04-22 14:48 25.84062 116.92078 19472 ft 377 kts 138°
2026-04-22 14:48 25.82305 116.94227 19133 ft 375 kts 138°
2026-04-22 14:48 25.80559 116.96366 18795 ft 372 kts 137°
2026-04-22 14:49 25.78829 116.98488 18452 ft 370 kts 137°
2026-04-22 14:49 25.77110 117.00597 18027 ft 368 kts 137°
2026-04-22 14:49 25.75394 117.02704 17540 ft 367 kts 137°
2026-04-22 14:49 25.73686 117.04800 17052 ft 363 kts 137°
2026-04-22 14:50 25.72009 117.06859 16584 ft 357 kts 137°
2026-04-22 14:50 25.70341 117.08902 16102 ft 355 kts 137°
2026-04-22 14:50 25.68697 117.10914 15603 ft 350 kts 137°
2026-04-22 14:50 25.67074 117.12900 15101 ft 345 kts 137°
2026-04-22 14:51 25.65472 117.14861 14608 ft 341 kts 137°
2026-04-22 14:51 25.63895 117.16792 14148 ft 334 kts 137°
2026-04-22 14:51 25.62366 117.18660 13725 ft 329 kts 136°
2026-04-22 14:51 25.60836 117.20526 13242 ft 325 kts 136°
2026-04-22 14:52 25.59329 117.22360 12759 ft 320 kts 136°
2026-04-22 14:52 25.57840 117.24172 12280 ft 315 kts 137°
2026-04-22 14:52 25.56377 117.25952 11840 ft 310 kts 136°
2026-04-22 14:52 25.54931 117.27713 11682 ft 308 kts 136°
2026-04-22 14:53 25.53492 117.29463 11695 ft 308 kts 136°
2026-04-22 14:53 25.52045 117.31219 11691 ft 308 kts 136°
2026-04-22 14:53 25.50635 117.32937 11696 ft 297 kts 136°
2026-04-22 14:53 25.49253 117.34622 11690 ft 294 kts 136°
2026-04-22 14:54 25.47879 117.36293 11691 ft 293 kts 137°
2026-04-22 14:54 25.46506 117.37959 11687 ft 293 kts 137°
2026-04-22 14:54 25.45133 117.39611 11691 ft 290 kts 140°
2026-04-22 14:54 25.43524 117.40862 11688 ft 277 kts 166°
2026-04-22 14:55 25.41688 117.41166 11691 ft 262 kts 194°
2026-04-22 14:55 25.39980 117.40617 11693 ft 254 kts 208°
2026-04-22 14:55 25.38367 117.39838 11687 ft 251 kts 215°
2026-04-22 14:55 25.37128 117.38584 11686 ft 239 kts 244°
2026-04-22 14:56 25.36688 117.36883 11694 ft 234 kts 272°
2026-04-22 14:56 25.37142 117.35165 11694 ft 238 kts 299°
2026-04-22 14:56 25.38329 117.33872 11696 ft 248 kts 327°
2026-04-22 14:56 25.40033 117.33397 11696 ft 263 kts 356°
2026-04-22 14:57 25.41840 117.33909 11698 ft 278 kts 22°
2026-04-22 14:57 25.43371 117.35268 11692 ft 289 kts 49°
2026-04-22 14:57 25.44283 117.37269 11694 ft 297 kts 76°
2026-04-22 14:57 25.44336 117.39533 11694 ft 297 kts 105°
2026-04-22 14:58 25.43507 117.41588 11687 ft 291 kts 133°
2026-04-22 14:58 25.42174 117.43255 11692 ft 290 kts 137°
2026-04-22 14:58 25.40808 117.44901 11686 ft 291 kts 137°
2026-04-22 14:58 25.39442 117.46550 11686 ft 291 kts 137°
2026-04-22 14:59 25.38072 117.48207 11692 ft 292 kts 137°
2026-04-22 14:59 25.36704 117.49861 11680 ft 291 kts 137°
2026-04-22 14:59 25.35345 117.51509 11692 ft 290 kts 137°
2026-04-22 14:59 25.33987 117.53155 11689 ft 289 kts 137°
2026-04-22 15:00 25.32632 117.54796 11686 ft 290 kts 137°
2026-04-22 15:00 25.31296 117.56419 11689 ft 282 kts 137°
2026-04-22 15:00 25.29999 117.57993 11671 ft 281 kts 137°
2026-04-22 15:00 25.28679 117.59592 11399 ft 281 kts 137°
2026-04-22 15:01 25.27368 117.61182 11145 ft 279 kts 137°
2026-04-22 15:01 25.26065 117.62761 10875 ft 277 kts 137°
2026-04-22 15:01 25.24766 117.64332 10614 ft 277 kts 137°
2026-04-22 15:01 25.23472 117.65896 10353 ft 275 kts 136°
2026-04-22 15:02 25.22185 117.67447 10111 ft 274 kts 137°
2026-04-22 15:02 25.20897 117.68998 9823 ft 275 kts 137°
2026-04-22 15:02 25.19603 117.70556 9490 ft 276 kts 136°
2026-04-22 15:02 25.18308 117.72120 9164 ft 276 kts 136°
2026-04-22 15:03 25.17017 117.73681 8827 ft 273 kts 136°
2026-04-22 15:03 25.15747 117.75216 8474 ft 268 kts 136°
2026-04-22 15:03 25.14491 117.76732 8051 ft 267 kts 137°
2026-04-22 15:03 25.13243 117.78237 7637 ft 265 kts 137°
2026-04-22 15:04 25.12004 117.79730 7233 ft 263 kts 136°
2026-04-22 15:04 25.10777 117.81209 6945 ft 257 kts 136°
2026-04-22 15:04 25.09598 117.82633 6940 ft 250 kts 136°
2026-04-22 15:04 25.08432 117.84048 6935 ft 249 kts 133°
2026-04-22 15:05 25.07636 117.85714 6939 ft 253 kts 105°
2026-04-22 15:05 25.07294 117.87617 6942 ft 254 kts 99°
2026-04-22 15:05 25.07039 117.89551 6939 ft 255 kts 98°
2026-04-22 15:05 25.06761 117.91485 6939 ft 255 kts 103°
2026-04-22 15:06 25.06492 117.92772 6932 ft 255 kts 104°
2026-04-22 15:06 25.05930 117.95284 6931 ft 255 kts 105°
2026-04-22 15:06 25.05498 117.97176 6934 ft 254 kts 106°
2026-04-22 15:06 25.04770 117.98911 6934 ft 248 kts 131°
2026-04-22 15:07 25.03524 118.00176 6928 ft 242 kts 147°
2026-04-22 15:07 25.02177 118.01306 6929 ft 244 kts 148°
2026-04-22 15:07 25.00822 118.02441 6933 ft 245 kts 148°
2026-04-22 15:07 24.99466 118.03578 6917 ft 245 kts 148°
2026-04-22 15:08 24.98102 118.04717 6919 ft 247 kts 149°
2026-04-22 15:08 24.96723 118.05866 6927 ft 254 kts 148°
2026-04-22 15:08 24.95261 118.07075 6923 ft 274 kts 148°
2026-04-22 15:08 24.93660 118.08397 6921 ft 296 kts 148°
2026-04-22 15:09 24.92564 118.09308 6917 ft 299 kts 148°
2026-04-22 15:09 24.90902 118.10701 6919 ft 301 kts 147°
2026-04-22 15:09 24.88694 118.12556 6755 ft 301 kts 147°
2026-04-22 15:09 24.87573 118.13495 6583 ft 299 kts 147°
2026-04-22 15:10 24.85376 118.15330 6239 ft 299 kts 147°
2026-04-22 15:10 24.83739 118.16700 5966 ft 290 kts 147°
2026-04-22 15:10 24.82173 118.18014 5689 ft 275 kts 147°
2026-04-22 15:10 24.81161 118.18863 5507 ft 267 kts 147°
2026-04-22 15:11 24.79738 118.20054 5243 ft 254 kts 147°
2026-04-22 15:11 24.78346 118.21217 4998 ft 249 kts 147°
2026-04-22 15:11 24.76988 118.22348 4864 ft 242 kts 147°
2026-04-22 15:11 24.75659 118.23453 4593 ft 236 kts 148°
2026-04-22 15:12 24.74369 118.24527 4318 ft 228 kts 148°
2026-04-22 15:12 24.73120 118.25565 4045 ft 222 kts 148°
2026-04-22 15:12 24.71911 118.26569 3802 ft 213 kts 147°
2026-04-22 15:12 24.70749 118.27536 3545 ft 207 kts 147°
2026-04-22 15:13 24.69569 118.28391 3398 ft 199 kts 161°
2026-04-22 15:13 24.68260 118.28790 3382 ft 192 kts 180°
2026-04-22 15:13 24.67015 118.28731 3292 ft 171 kts 198°
2026-04-22 15:13 24.65927 118.28306 3176 ft 163 kts 213°
2026-04-22 15:14 24.65030 118.27588 3004 ft 158 kts 228°
2026-04-22 15:14 24.64338 118.26675 2828 ft 155 kts 234°
2026-04-22 15:14 24.63683 118.25757 2624 ft 147 kts 234°
2026-04-22 15:14 24.63066 118.24892 2441 ft 142 kts 234°
2026-04-22 15:15 24.62464 118.24047 2266 ft 139 kts 234°
2026-04-22 15:15 24.61870 118.23215 2082 ft 138 kts 233°
2026-04-22 15:15 24.61281 118.22389 1913 ft 138 kts 233°
2026-04-22 15:15 24.60691 118.21561 1734 ft 137 kts 233°
2026-04-22 15:16 24.60104 118.20738 1563 ft 137 kts 233°
2026-04-22 15:16 24.59519 118.19917 1377 ft 136 kts 232°
2026-04-22 15:16 24.58934 118.19097 1211 ft 136 kts 232°
2026-04-22 15:16 24.58350 118.18280 1022 ft 136 kts 232°
2026-04-22 15:17 24.57765 118.17459 835 ft 136 kts 232°
2026-04-22 15:17 24.57183 118.16643 658 ft 136 kts 232°
2026-04-22 15:17 24.56593 118.15830 486 ft 139 kts 231°
2026-04-22 15:17 24.55996 118.14977 317 ft 140 kts 233°
2026-04-22 15:18 24.55398 118.14158 144 ft 140 kts 231°
2026-04-22 15:18 24.54821 118.13330 52 ft 125 kts 231°
2026-04-22 15:18 24.54386 118.12733 54 ft 75 kts 232°
2026-04-22 15:18 24.54166 118.12422 53 ft 36 kts 232°
2026-04-22 15:19 24.54028 118.12240 58 ft 21 kts 218°
2026-04-22 15:19 24.53922 118.12177 57 ft 14 kts 204°
2026-04-22 15:19 24.53851 118.12149 58 ft 8 kts 187°
2026-04-22 15:19 24.53808 118.12171 55 ft 6 kts 126°
2026-04-22 15:20 24.53819 118.12226 52 ft 11 kts 53°
2026-04-22 15:20 24.53882 118.12313 53 ft 18 kts 52°
2026-04-22 15:20 24.53976 118.12447 56 ft 26 kts 51°
2026-04-22 15:20 24.54098 118.12615 49 ft 29 kts 52°
2026-04-22 15:21 24.54222 118.12789 53 ft 30 kts 52°
2026-04-22 15:21 24.54353 118.12972 52 ft 30 kts 52°
2026-04-22 15:21 24.54468 118.13132 52 ft 24 kts 52°
2026-04-22 15:21 24.54575 118.13282 51 ft 26 kts 52°
2026-04-22 15:22 24.54687 118.13439 50 ft 24 kts 52°
2026-04-22 15:22 24.54790 118.13583 49 ft 25 kts 52°
2026-04-22 15:22 24.54903 118.13741 46 ft 27 kts 52°
2026-04-22 15:22 24.55013 118.13895 44 ft 21 kts 51°
2026-04-22 15:23 24.55049 118.13946 45 ft 0 kts 52°
2026-04-22 15:24 24.55066 118.13970 42 ft 9 kts 52°
2026-04-22 15:25 24.55118 118.14042 44 ft 13 kts 52°
2026-04-22 15:25 24.55116 118.14108 45 ft 7 kts 130°
2026-04-22 15:25 24.55072 118.14150 43 ft 11 kts 140°
2026-04-22 15:25 24.54996 118.14216 44 ft 16 kts 142°
2026-04-22 15:26 24.54914 118.14286 43 ft 13 kts 142°
2026-04-22 15:26 24.54869 118.14315 45 ft 5 kts 182°
2026-04-22 15:26 24.54852 118.14303 45 ft 2 kts 220°
2026-04-22 15:26 24.54846 118.14296 45 ft 1 kts 227°
2026-04-22 15:27 24.54841 118.14290 45 ft 1 kts 229°
2026-04-22 15:27 24.54839 118.14286 45 ft 0 kts 231°
2026-04-22 15:27 24.54838 118.14286 45 ft 0 kts 231°